Powrót do katalogu

STARLINK-32164

AktywnyŁącznośćVLEO
NORAD 60271·PAYLOAD·🇺🇸 United States

Wystrzelony Jul 27, 2024 z Cape Canaveral Space Force Station

Loading…

Następne Przeloty (najbliższe 24 godziny)

TLE

ŚwieżeSource: CelesTrak SupGP

Epoka: Sep 14, 2026, 22:31 UTC

1 60271C 24131S   26257.93868056  .00042425  00000+0  12534-2 0  2574
2 60271  53.1569 251.8572 0001313  95.1302 317.2878 15.34370138    17

Śledź STARLINK-32164 w czasie rzeczywistym z AllMySat

Download on the App Store